Showing default

DIADEME 1, 2674

Orbit data source: Space-Track

DIADEME 1, 2674 is a payload satellite owned by CNES (FR) in LEO that was launched on Wed, 08 Feb 1967 UTC via a DIAMANT A launch vehicle from the Hamma Guira Space Track Range (HGSTR). Payload-class satellites include a variety of spacecraft equipped with specific instruments for various scientific and technological missions. These include communications satellites like Starlink; space stations such as the ISS; scientific satellites like the Hubble; Earth observation satellites from companies like Planet Labs, Umbra, and HawkEye 360; GPS; miniature CubeSats for education and research; and military/defense satellites.

Loading next visibility...
Identifier
2674, 1967-011A
Orbit
LEO
Last TLE update
9 hours ago
Origin
Manufacturer
CNES
Mission
Civil Geodetic
Bus & Motor
D-1, Unknown motor
Mass
23 kg wet, 23 kg dry
Launch date (UTC)
1967-02-08 (58 years ago)
Launch vehicle
DIAMANT A
Launch site
Hamma Guira Space Track Range (HGSTR)
Object type
Payload
Rocket body
Debris
Shape & HBR
Cyl + 4 Pan, 1.5 m
Radar Cross Section
0.455 m², Medium (>0.1 m² and < 1m²)

Expand to show TLE details & history

TLE from 9 hours ago
0 DIADEME 1
1 02674U 67011A   25128.88140914  .00004457  00000-0  52660-3 0  9999
2 02674  39.9187 343.7363 0223057 351.7987   7.9178 14.69048254 30521
Epoch: 2025-05-08T21:09Z
Definitive object data (Epoch: 2025-05-08T21:09:13.749Z)
Latitude
-0.00002°
Longitude
159.48345°
Altitude
508.067 km
Speed
7.695 km/s
True Right ascension
22h 54m 56s
True Declination
0° 00' 00"
Sunlit
Object was in daylight at TLE epoch
Visualization TLE readout
Latitude
12.64402°
Longitude
-37.98912°
Altitude
814.795 km
Speed
7.368 km/s
Apparent Right ascension
06h 58m 45s
Apparent Declination
-20° 18' 49"
Sunlit
Object is in daylight
Visualization observer readout
Local Sidereal Time
14:10:54
Azimuth
264.877° W
Elevation
-26.454°
Doppler factor
1
Orbital elements
Apogee altitude
823.642 km
Perigee altitude
509.37 km
Semi-major axis
7,044.643 km
Eccentricity
0.0223057
Inclination
39.9187°
RAAN
343.7363°
Arg. of periapsis
351.7987°
True anomaly
8.27989°
Mean anomaly
7.9178°
Eccentric anomaly
8.09783°
Mean motion
3.67075 °/min
BSTAR
0.0005266
Orbital period
98.07 mins
Loading maneuver chart data...
Loading SW <> Apogee altitude chart data...

DIADEME 1 Visibility forecast

Observer location: undefined°, undefined°

Span
Click to sort rows by Start time (UTC) header in descending order
Start Az.
Max El. time (UTC)
Max El. Az.
Max El.
End time (UTC)
End Az.
5 mins2025-05-09 16:55:08.758Z187.419° SSW2025-05-09 16:58:08.758Z138.57° SSE17.539°2025-05-09 17:00:08.758Z108.148° ESE
6 mins2025-05-09 18:38:08.758Z233.348° WSW2025-05-09 18:40:08.758Z181.375° SSW40.597°2025-05-09 18:44:08.758Z85.111° E
8 mins2025-05-09 20:20:08.758Z269.878° W2025-05-09 20:24:08.758Z87.842° E43.695°2025-05-09 20:28:08.758Z90.631° ESE
8 mins2025-05-09 22:04:08.758Z270.895° WNW2025-05-09 22:07:08.758Z187.624° SSW41.642°2025-05-09 22:12:08.758Z117.425° SE
7 mins2025-05-09 23:47:08.758Z253.701° W2025-05-09 23:50:08.758Z209.201° SW22.423°2025-05-09 23:54:08.758Z160.632° S
|